#timestamp,LO_Frequency,Hit,StdDev 
1675270815.5,286047000.8,N
1675270835.3,286046998.9,N
1675270855.1,286046999.1,N
1675270875.9,286046997.5,N
1675270895.7,286046997.7,N
1675270915.6,286046998.9,N
1675270935.4,286047000.8,N
1675270955.2,286046999.8,N
1675270975.1,286047011.9,Y
1675270976.0,286046998.1,P
1675270995.8,286046998.2,P
1675271015.7,286047000.8,P
1675271035.5,286046999.1,N
1675271055.3,286047001.2,N
1675271075.2,286046999.6,N
1675271095.0,286046999.4,N
1675271095.9,286046999.4,N
1675271115.8,286046996.2,Y
1675271135.6,286046997.0,P
1675271155.5,286047000.7,N
1675271175.3,286047000.3,N
1675271195.1,286047000.2,N
1675271215.9,286047002.1,N
1675271235.7,286047004.4,N
1675271255.5,286047001.3,N
1675271275.4,286047000.3,N
1675271295.2,286047000.4,N
1675271315.1,286046999.2,N
1675271316.0,286046999.2,N
1675271335.8,286046998.3,N
1675271355.6,286046997.8,N
1675271375.5,286046995.5,N
1675271395.3,286046995.5,N
1675271415.1,286046991.8,Y
1675271435.9,286046995.0,P
1675271455.7,286046995.2,N
1675271505.6,286046997.0,E
1675271515.5,286046998.3,N
1675271535.3,286046999.2,P
1675271555.2,286046999.5,N
1675271575.0,286047001.2,N
1675271575.9,286047001.2,N
1675271595.8,286046998.5,N
1675271615.6,286046999.9,N
1675271635.4,286046998.9,N
1675271655.3,286046998.6,N
1675271675.1,286047002.5,N
1675271695.8,286046999.7,N
1675271715.7,286046998.6,N
1675271735.5,286047001.5,N
1675271755.4,286047002.6,N
1675271775.2,286047002.7,N
1675271795.0,286047001.2,N
1675271795.9,286047001.2,N
1675271815.8,286047003.6,N
1675271835.6,286047004.3,N
1675271855.5,286047002.1,N
1675271875.3,286047002.9,N
1675271895.1,286047005.0,N
1675271915.9,286047003.3,N
1675271935.7,286047002.6,N
1675271955.5,286047001.7,N
1675271975.4,286047006.0,Y
1675271995.2,286047002.2,P
1675272015.1,286047002.4,P
1675272016.0,286047002.4,P
1675272035.8,286047004.4,Y
1675272055.6,286047000.1,P
1675272075.5,286047002.4,N
1675272095.3,286047002.3,N
1675272115.1,286047000.8,N
1675272135.9,286046998.8,N
1675272155.7,286046997.3,N
1675272175.6,286046996.9,N
1675272195.4,286046996.6,N
1675272215.2,286046994.9,N
1675272235.1,286046997.4,N
1675272236.0,286046997.4,N
1675272255.8,286046999.4,N
1675272275.6,286046996.6,N
1675272295.5,286046995.6,N
1675272315.3,286046997.0,N
1675272335.2,286046996.0,N
1675272355.9,286046993.9,N
1675272375.7,286046995.4,N
1675272395.6,286047001.2,N
1675272415.4,286046998.9,N
1675272435.2,286047000.4,N
1675272455.1,286047001.4,N
1675272456.0,286047001.4,N
1675272475.8,286047003.9,N
1675272495.7,286047005.0,N
1675272515.5,286047005.9,N
1675272535.3,286047000.6,N
1675272555.2,286046998.7,N
1675272575.0,286046996.8,N
1675272575.9,286046996.8,N
1675272595.8,286047000.8,N
1675272615.6,286046995.2,N
1675272635.4,286046995.2,N
1675272655.3,286046998.9,N
1675272675.1,286046995.7,N
1675272695.9,286046997.9,N
1675272715.7,286046997.0,N
1675272735.5,286046998.1,N
1675272755.4,286046998.4,N
1675272775.2,286047001.8,N
1675272795.0,286047001.1,N
1675272795.9,286047001.1,N
1675272815.8,286046999.1,N
1675272835.6,286046999.3,N
1675272855.5,286047002.8,N
1675272875.3,286047001.6,N
1675272895.1,286047000.5,N
1675272915.9,286046998.7,N
1675272935.7,286047002.3,N
1675272955.5,286047001.0,N
1675272975.4,286046998.4,N
1675272995.2,286046999.5,N
1675273015.1,286047001.2,N
1675273016.0,286047001.2,N
1675273035.8,286047002.2,N
1675273055.6,286046999.3,N
1675273075.5,286046999.7,N
1675273095.3,286047000.1,N
1675273115.1,286047001.9,N
1675273135.9,286046998.1,N
1675273155.7,286046998.5,N
1675273175.6,286046997.9,N
1675273195.4,286046995.1,N
1675273215.2,286046997.3,N
1675273235.1,286046996.9,N
1675273236.0,286046996.9,N
1675273255.8,286046997.6,N
1675273275.6,286046997.3,N
1675273295.5,286046997.5,N
1675273315.3,286046995.9,N
1675273335.2,286046996.7,N
1675273355.9,286046997.4,N
1675273375.7,286046997.1,N
1675273395.6,286046999.4,N
1675273415.4,286046997.7,N
1675273435.3,286046996.3,N
1675273455.1,286046996.0,N
1675273456.0,286046996.0,N
1675273475.8,286046998.9,N
1675273495.7,286046995.1,N
1675273515.5,286046995.3,N
1675273535.7,286046993.7,Y
1675273555.6,286047000.5,P
1675273575.4,286047001.5,N
1675273595.2,286047002.2,N
1675273615.1,286047002.6,N
1675273616.0,286047002.6,N
1675273635.8,286047005.4,Y
1675273655.7,286047003.9,P
1675273675.5,286047000.4,N
1675273695.3,286047002.1,N
1675273715.2,286047003.7,N
1675273735.0,286047005.8,Y
1675273735.9,286047005.8,P
1675273755.7,286047003.0,N
1675273775.6,286047004.0,N
1675273795.4,286047000.7,N
1675273815.3,286047000.0,N
1675273835.1,286047004.3,N
1675273836.0,286047004.3,N
1675273855.8,286047004.4,N
1675273875.7,286047003.4,N
1675273895.5,286047003.4,N
1675273915.4,286047005.3,Y
1675273935.2,286047001.9,P
1675273955.0,286047001.8,N
1675273955.9,286047001.8,N
1675273975.8,286047001.1,N
1675273995.6,286046999.0,N
1675274015.4,286046998.3,N
1675274035.3,286046995.9,N
1675274055.1,286046994.8,N
1675274075.9,286046992.2,N
1675274095.7,286046996.3,N
1675274115.5,286046995.4,N
1675274135.4,286046997.9,N
1675274155.2,286046996.5,N
1675274175.0,286046998.0,N
1675274175.9,286046998.0,N
1675274195.8,286046998.0,N
1675274215.6,286046993.7,N
1675274235.5,286046997.8,N
1675274255.3,286046998.7,N
1675274275.1,286047001.1,N
1675274295.9,286047001.1,N
1675274315.7,286047000.7,N
1675274335.6,286046999.3,N
1675274355.4,286046995.8,N
1675274375.2,286046993.2,N
1675274395.1,286046990.7,Y
1675274396.0,286046990.7,P
